User: anonymous   Login
Location: Unspecified
(0.0000°N, 0.0000°E)
Time: 18:59:44
(UTC+00:00)
Language:

HUMSAT D - Orbit

View from above orbital plane
View from above orbital plane
View from above satellite
View from above satellite

Ground track
Ground track

The orbit data is extracted from the following two-line orbital elements,

1 39433U 13066T   19341.40782461  .00000470  00000-0  50869-4 0  9991
2 39433  97.5331  21.7063 0032215  88.0294 272.4615 14.92320155328681
Epoch (UTC): 07 December 2019 09:47:16
Eccentricity: 0.0032215
inclination: 97.5331°
perigee height: 568 km
apogee height: 613 km
right ascension of ascending node: 21.7063°
argument of perigee: 88.0294°
revolutions per day: 14.92320155
mean anomaly at epoch: 272.4615°
orbit number at epoch: 32868

The dashed part of the orbit path shows where the satellite is in the earth's shadow,  

DLR